AB8KN-2 Weather Reports


Display with metric or nautical units.
time (UTC)temp
F
wind
direction
speed
MPH
gust
MPH
rain 1hr
in
rain 24hr
in
rain mn
in
humidity
%
barometer
mb
20260506215037 57 218 1.0 3.0 0.00 0.57 0.23 49 1012.7
20260506214017 56 243 1.0 6.0 0.00 0.60 0.23 51 1012.6
20260506213017 56 261 2.0 7.0 0.00 0.63 0.23 50 1012.4
20260506212037 57 249 2.0 7.0 0.00 0.66 0.23 49 1012.3
20260506211017 57 235 1.0 4.0 0.00 0.69 0.23 49 1012.5
20260506210018 57 268 3.0 7.0 0.00 0.69 0.23 49 1012.3
20260506205018 57 250 2.0 7.0 0.00 0.69 0.23 49 1012.3
20260506204018 57 265 2.0 7.0 0.00 0.69 0.23 50 1012.1
20260506203018 58 244 2.0 6.0 0.00 0.69 0.23 49 1012.3
20260506202038 58 242 1.0 5.0 0.00 0.69 0.23 47 1012.4
20260506201035 58 248 1.0 4.0 0.00 0.69 0.23 50 1012.1
20260506200018 58 256 2.0 6.0 0.00 0.69 0.23 50 1012.1
20260506195016 59 232 2.0 5.0 0.00 0.69 0.23 50 1012.1
20260506194016 59 227 2.0 5.0 0.00 0.69 0.23 50 1012.1
20260506193016 59 227 2.0 5.0 0.00 0.69 0.23 48 1012.2
20260506192016 60 227 2.0 4.0 0.00 0.69 0.23 49 1012.1
20260506191017 60 228 2.0 5.0 0.00 0.69 0.23 47 1012.0
20260506190018 61 230 3.0 9.0 0.00 0.69 0.23 46 1012.3
20260506185017 61 231 4.0 8.0 0.00 0.69 0.23 46 1012.3
20260506184017 60 243 2.0 4.0 0.00 0.69 0.23 48 1012.5
20260506183037 60 262 4.0 11.0 0.00 0.69 0.23 48 1012.5
20260506182017 60 264 3.0 10.0 0.00 0.69 0.23 47 1012.6
20260506181118 60 257 2.0 8.0 0.00 0.69 0.23 49 1012.3
20260506180037 60 256 2.0 7.0 0.00 0.69 0.23 48 1012.6
20260506175058 61 244 2.0 5.0 0.00 0.69 0.23 48 1012.5
20260506174018 61 251 3.0 8.0 0.00 0.69 0.23 49 1012.8
20260506173018 60 245 2.0 9.0 0.00 0.69 0.23 46 1012.9
20260506172018 60 262 3.0 11.0 0.00 0.69 0.23 47 1012.7
20260506171016 60 224 2.0 6.0 0.00 0.69 0.23 49 1013.0
20260506170016 60 220 2.0 5.0 0.00 0.69 0.23 49 1013.1
20260506165016 59 215 2.0 5.0 0.00 0.69 0.23 52 1013.0
20260506164016 58 243 3.0 8.0 0.00 0.69 0.23 51 1013.0
20260506163016 57 236 2.0 8.0 0.00 0.69 0.23 53 1013.4
20260506162016 57 247 3.0 6.0 0.00 0.69 0.23 56 1013.4
20260506161016 56 243 2.0 5.0 0.00 0.69 0.23 58 1013.5
20260506160016 54 226 1.0 4.0 0.00 0.69 0.23 60 1013.0
20260506155017 55 271 3.0 10.0 0.00 0.69 0.23 60 1012.4
20260506154037 55 213 1.0 3.0 0.00 0.69 0.23 61 1012.4
20260506153017 54 232 2.0 6.0 0.00 0.69 0.23 61 1012.5
20260506152017 53 250 2.0 6.0 0.00 0.69 0.23 64 1012.6
20260506151018 52 256 2.0 7.0 0.00 0.69 0.23 67 1012.3
20260506150018 52 268 2.0 7.0 0.00 0.69 0.23 68 1012.0
20260506145017 51 254 1.0 5.0 0.00 0.69 0.23 73 1012.1
20260506144017 50 241 2.0 4.0 0.00 0.69 0.23 74 1012.1
20260506143017 50 253 1.0 5.0 0.00 0.69 0.23 76 1011.8
20260506142018 50 273 2.0 6.0 0.00 0.69 0.23 78 1011.6
20260506141018 49 233 1.0 4.0 0.00 0.69 0.23 81 1011.6
20260506140015 48 251 1.0 5.0 0.00 0.69 0.23 83 1011.2
20260506135036 48 273 2.0 5.0 0.00 0.69 0.23 84 1011.1
20260506134016 48 242 2.0 3.0 0.00 0.69 0.23 86 1011.2
20260506133016 48 217 1.0 3.0 0.00 0.69 0.23 89 1011.0
20260506132015 47 254 1.0 3.0 0.00 0.69 0.23 91 1010.8
20260506131036 46 265 1.0 4.0 0.00 0.69 0.23 91 1010.9
20260506130016 46 229 1.0 2.0 0.00 0.69 0.23 93 1010.7
20260506125016 46 227 1.0 3.0 0.00 0.69 0.23 95 1010.7
20260506124017 47 196 1.0 2.0 0.00 0.69 0.23 96 1010.4
20260506123016 47 219 1.0 5.0 0.00 0.69 0.23 97 1010.0
20260506122016 47 240 1.0 4.0 0.00 0.69 0.23 97 1009.8
20260506121016 46 200 1.0 2.0 0.00 0.69 0.23 97 1009.5
20260506120037 46 218 0.0 2.0 0.00 0.69 0.23 97 1009.7
20260506115017 46 194 0.0 1.0 0.00 0.69 0.23 97 1009.4
20260506114038 46 271 1.0 3.0 0.00 0.69 0.23 97 1009.6
20260506113017 46 258 1.0 3.0 0.00 0.69 0.23 97 1009.6
20260506112018 46 254 1.0 3.0 0.00 0.69 0.23 97 1008.6
20260506111018 46 225 1.0 3.0 0.00 0.69 0.23 97 1008.2
20260506110018 46 247 1.0 2.0 0.00 0.69 0.23 98 1008.4
20260506105059 46 243 1.0 4.0 0.00 0.69 0.23 98 1008.2
20260506104018 46 209 1.0 2.0 0.00 0.69 0.23 98 1008.6
20260506103019 46 253 1.0 5.0 0.00 0.69 0.23 98 1008.4
20260506102018 46 236 1.0 5.0 0.00 0.69 0.22 98 1008.1
20260506101018 46 181 0.0 1.0 0.00 0.69 0.22 97 1007.7
20260506100039 46 197 1.0 2.0 0.00 0.69 0.22 97 1007.2
20260506095019 46 231 0.0 2.0 0.00 0.69 0.22 97 1007.5
20260506094019 46 204 1.0 4.0 0.01 0.69 0.22 97 1006.8
20260506093040 46 221 1.0 2.0 0.02 0.69 0.22 97 1007.3
20260506092019 46 240 1.0 2.0 0.04 0.69 0.22 97 1007.6
20260506091040 46 179 1.0 2.0 0.05 0.69 0.22 97 1007.4
20260506090019 46 249 1.0 3.0 0.06 0.69 0.22 97 1007.0
20260506085020 46 216 1.0 3.0 0.06 0.68 0.22 97 1007.2
20260506084020 46 231 1.0 3.0 0.05 0.67 0.21 97 1007.6
20260506083020 46 224 1.0 4.0 0.04 0.66 0.20 97 1007.3
20260506082041 46 233 1.0 4.0 0.03 0.65 0.19 97 1007.1
20260506081020 46 220 2.0 5.0 0.02 0.63 0.17 97 1007.3
20260506073021 47 241 2.0 4.0 0.07 0.62 0.16 97 1006.6
20260506072015 47 241 2.0 6.0 0.09 0.62 0.16 97 1006.7
20260506071015 47 231 1.0 4.0 0.09 0.61 0.15 97 1006.6
20260506062017 49 241 2.0 19.0 0.07 0.53 0.07 97 1006.9
20260506061117 49 215 1.0 5.0 0.06 0.52 0.06 97 1006.9
20260506051035 49 185 1.0 3.0 0.00 0.47 0.00 97 1006.9
20260506045015 50 182 1.0 2.0 0.00 0.47 0.00 96 1007.1
20260506044016 50 186 1.0 3.0 0.00 0.47 0.00 96 1007.1
20260506043036 50 170 1.0 3.0 0.01 0.47 0.00 96 1007.1
20260506042016 50 175 1.0 4.0 0.03 0.47 0.00 96 1007.1
20260506041016 50 177 2.0 3.0 0.06 0.47 0.00 96 1007.1
20260506040016 51 217 2.0 5.0 0.10 0.47 0.00 96 1007.3
20260506035017 51 177 2.0 5.0 0.13 0.47 0.47 96 1007.4
20260506034017 51 180 2.0 4.0 0.14 0.46 0.46 95 1007.5
20260506033016 52 168 2.0 5.0 0.14 0.46 0.46 95 1007.6
20260506032017 53 169 3.0 8.0 0.13 0.44 0.44 95 1007.8
20260506031017 55 223 3.0 6.0 0.11 0.40 0.40 94 1008.0
20260506030017 58 226 3.0 4.0 0.09 0.36 0.36 94 1008.2
20260506025017 58 227 2.0 4.0 0.08 0.33 0.33 95 1008.2
20260506024017 59 227 2.0 3.0 0.09 0.33 0.33 95 1007.9
20260506023018 59 219 2.0 4.0 0.10 0.32 0.32 95 1007.9
20260506022018 59 184 5.0 9.0 0.10 0.31 0.31 95 1008.0
20260506021015 59 190 4.0 9.0 0.09 0.29 0.29 95 1008.0
20260506020016 60 171 6.0 11.0 0.08 0.27 0.27 96 1008.1
20260506015015 60 161 5.0 8.0 0.06 0.26 0.26 96 1008.1
20260506014016 60 171 6.0 11.0 0.04 0.23 0.23 95 1008.0
20260506013016 60 186 5.0 12.0 0.03 0.22 0.22 95 1007.9
20260506012056 60 205 1.0 3.0 0.02 0.21 0.21 95 1007.7
20260506011016 60 206 2.0 4.0 0.02 0.20 0.20 95 1007.5
20260506010016 60 209 2.0 6.0 0.02 0.20 0.20 95 1007.4
20260506005016 60 198 2.0 5.0 0.02 0.20 0.20 95 1007.6
20260506004016 60 203 1.0 4.0 0.02 0.19 0.19 95 1007.5
20260506003016 60 203 1.0 3.0 0.01 0.19 0.19 95 1007.6
20260506002017 60 184 2.0 5.0 0.01 0.18 0.18 95 1007.7
20260506001037 60 198 2.0 6.0 0.01 0.18 0.18 95 1007.6
20260506000038 60 205 1.0 5.0 0.01 0.18 0.18 95 1007.6
20260505235017 60 198 1.0 3.0 0.01 0.18 0.18 95 1007.7
20260505234017 60 200 2.0 4.0 0.00 0.18 0.18 95 1007.6
20260505233017 60 203 1.0 3.0 0.01 0.17 0.17 94 1007.8
20260505232017 60 172 2.0 5.0 0.02 0.17 0.17 94 1007.8
20260505231015 60 172 2.0 3.0 0.03 0.17 0.17 94 1007.9
20260505230015 60 175 2.0 3.0 0.04 0.17 0.17 94 1008.0
20260505225016 60 177 2.0 3.0 0.06 0.17 0.17 94 1008.0
20260505224016 60 175 2.0 3.0 0.08 0.17 0.17 94 1008.1
20260505223016 60 174 2.0 3.0 0.11 0.17 0.17 93 1008.1
20260505222016 60 174 2.0 3.0 0.12 0.16 0.16 93 1008.1
20260505221016 60 168 2.0 3.0 0.15 0.15 0.15 93 1008.2
20260505220016 60 178 2.0 5.0 0.13 0.13 0.13 93 1008.1